CEST,Max TemperatureF,Mean TemperatureF,Min TemperatureF,Max Dew PointF,MeanDew PointF,Min DewpointF,Max Humidity, Mean Humidity, Min Humidity, Max Sea Level PressureIn, Mean Sea Level PressureIn, Min Sea Level PressureIn, Max VisibilityMiles, Mean VisibilityMiles, Min VisibilityMiles, Max Wind SpeedMPH, Mean Wind SpeedMPH, Max Gust SpeedMPH,PrecipitationIn, CloudCover, Events, WindDirDegrees
2012-9-1,75,72,64,57,55,50,64,54,46,29.98,29.96,29.92,6,6,6,13,7,,0.00,2,,200
2012-9-2,78,68,59,66,61,55,94,75,44,30.06,30.03,29.95,6,6,5,9,4,,0.00,3,Rain,231
2012-9-3,77,70,64,66,61,57,94,67,53,29.95,29.92,29.89,6,6,5,14,5,,0.00,2,Rain,174
2012-9-4,69,66,64,66,64,59,100,89,73,29.89,29.86,29.83,6,4,2,15,6,29,0.00,5,Rain-Thunderstorm,80
2012-9-5,78,72,66,68,66,64,94,80,61,29.92,29.89,29.86,6,5,2,14,6,,0.00,3,Rain,125
2012-9-6,86,76,66,66,64,59,100,64,43,30.04,29.97,29.95,6,6,5,12,4,,0.00,1,,2
2012-9-7,87,74,62,68,63,57,94,63,37,30.15,30.09,30.06,6,6,5,10,3,,0.00,1,,248
2012-9-8,86,74,62,64,60,54,100,62,35,30.09,30.06,30.01,4,3,2,10,3,,0.00,,,250
2012-9-9,84,73,62,70,65,61,94,70,48,30.09,30.04,30.01,6,4,3,12,5,,0.00,1,,239
2012-9-10,82,72,62,70,67,61,94,76,58,30.06,30.05,30.04,6,4,2,10,4,,0.00,1,,236
2012-9-11,84,73,62,66,65,61,100,69,48,30.09,30.03,29.98,6,5,3,13,4,,0.00,1,,253
2012-9-12,82,71,60,68,66,59,94,76,54,29.98,29.89,29.77,6,5,2,13,5,,0.00,2,,192
2012-9-13,73,66,60,63,61,55,94,82,65,29.62,29.54,29.53,6,5,2,16,6,,0.00,3,Rain-Thunderstorm,29
2012-9-14,64,62,59,59,56,52,88,81,72,29.65,29.56,29.53,6,6,3,14,8,,0.00,5,Rain,359
2012-9-15,82,70,59,61,58,55,94,59,42,29.86,29.79,29.74,6,6,6,10,5,,0.00,2,,6
2012-9-16,77,67,57,63,60,57,100,68,50,29.95,29.91,29.89,6,6,6,9,3,,0.00,3,,262
2012-9-17,80,66,53,61,57,54,100,65,42,29.98,29.96,29.92,6,6,6,7,2,,0.00,1,,270
2012-9-18,82,70,57,63,60,57,100,71,42,30.01,29.97,29.95,6,6,5,10,4,,0.00,1,,234
2012-9-19,75,67,59,68,65,59,100,85,69,29.98,29.91,29.86,6,4,1,10,4,,0.00,3,Rain,193
2012-9-20,78,69,60,64,55,45,100,62,34,30.09,30.03,29.95,3,3,2,14,5,,0.00,3,,353
2012-9-21,77,65,53,61,56,48,94,67,50,30.18,30.14,30.09,6,6,6,8,4,,0.00,1,,252
2012-9-22,78,68,57,64,62,57,100,72,54,30.09,30.06,30.04,6,6,6,9,4,,0.00,4,,171
2012-9-23,82,75,68,70,64,59,78,67,58,30.06,30.00,29.83,6,6,6,14,6,,0.00,4,,174
2012-9-24,82,71,60,72,67,61,100,77,58,29.89,29.83,29.77,6,5,4,17,6,29,0.00,1,,184
2012-9-25,78,74,69,66,63,59,88,68,51,29.92,29.91,29.89,6,6,6,16,8,,0.00,3,,172
2012-9-26,78,72,66,66,64,59,94,72,57,29.98,29.93,29.89,6,6,5,20,5,,0.00,5,Rain,130
2012-9-27,86,78,71,72,69,66,89,73,51,30.01,29.97,29.92,6,5,4,13,8,,0.00,2,,185
2012-9-28,87,76,64,68,63,57,94,68,35,30.04,30.01,29.98,6,5,4,8,3,,0.00,1,Rain,275
2012-9-29,91,76,60,66,58,45,94,55,20,29.98,29.93,29.89,6,6,6,22,7,,0.00,2,,160
2012-9-30,75,70,62,70,63,59,100,82,69,30.06,30.02,29.98,6,5,3,12,5,,0.00,3,Rain-Thunderstorm,147